Location: Unspecified
(0.0000°N, 0.0000°E)
Time: 09:54:40
(UTC+00:00)

Vanguard 1 - Pass Details

Date: 10 December 2017
Orbit: 650 x 3833 km, 34.2° (Epoch: 18 February)

Event Time Altitude Azimuth Distance (km) Brightness Sun altitude
Rises 17:20:07 0° 325° (NW) 3,481 13.1 7.6°
Reaches altitude 10° 17:23:26 10° 341° (NNW) 2,269 11.9 6.8°
Maximum altitude 17:27:13 22° 32° (NNE) 1,448 10.6 5.9°
Drops below altitude 10° 17:30:39 10° 84° (E) 2,042 11.1 5.1°
Sets 17:33:26 0° 101° (E) 3,029 12.1 4.5°
